Tracking 28790 objects as of 19-Apr-2024
HD Live streaming from Space Station
objects crossing your sky now

SL-8 R/B

Track SL-8 R/B now!
10-day predictions


NORAD ID: 7009
Int'l Code: 1973-109B
Perigee: 966.7 km
Apogee: 997.4 km
Inclination: 82.9 °
Period: 104.6 minutes
Semi major axis: 7353 km
RCS: 4.4533 m2 (large)
Launch date: December 29, 1973
Source: Commonwealth of Independent States (former USSR) (CIS)
Launch site: PLESETSK MISSILE AND SPACE COMPLEX (PKMTR)

Note: This is a ROCKET BODY
Your satellite tracking list
Your tracking list is empty




NASA's NSSDC Master Catalog

Two Line Element Set (TLE):
1  7009U 73109B   24109.91233646  .00000129  00000-0  11559-3 0  9992
2  7009  82.9484 248.5651 0020904  89.4915  22.3075 13.76895714527009
Source of the keplerian elements: AFSPC